• In Moldova, Republic
  • List of Countries
  • For 7 days
  • Water Temperature
  • Satellite Maps
  • Weather Map
  • Weather Widgets
  • user-avatar
    Login

    Hourly Weather Kalgoorlie

    Today, 27 February, Monday

    Time Temperature Precipitation Wind Pressure Humidity
    00:00 +30°C° 0 mm 3 mps 728 mmHg 19%
    01:00 +29°C° 0 mm 3 mps 728 mmHg 20%
    02:00 +28°C° 0 mm 2 mps 728 mmHg 24%
    03:00 +28°C° 0 mm 3 mps 728 mmHg 23%
    04:00 +27°C° 0 mm 3 mps 728 mmHg 23%
    05:00 +27°C° 0 mm 3 mps 728 mmHg 23%
    06:00 +28°C° 0 mm 4 mps 728 mmHg 20%
    07:00 +30°C° 0 mm 5 mps 729 mmHg 18%
    08:00 +33°C° 0 mm 6 mps 729 mmHg 15%
    09:00 +35°C° 0 mm 7 mps 729 mmHg 14%
    10:00 +39°C° 0 mm 7 mps 729 mmHg 12%
    11:00 +41°C° 0 mm 7 mps 729 mmHg 11%
    12:00 +43°C° 0 mm 7 mps 729 mmHg 11%
    13:00 +42°C° 0 mm 6 mps 728 mmHg 11%
    14:00 +44°C° 0 mm 6 mps 728 mmHg 11%
    15:00 +42°C° 0 mm 5 mps 727 mmHg 12%
    16:00 +41°C° 0 mm 4 mps 727 mmHg 14%
    17:00 +41°C° 0 mm 4 mps 727 mmHg 15%
    18:00 +38°C° 0 mm 4 mps 727 mmHg 19%
    19:00 +36°C° 0 mm 5 mps 727 mmHg 24%
    20:00 +34°C° 0 mm 5 mps 728 mmHg 28%
    21:00 +32°C° 0 mm 6 mps 728 mmHg 36%
    22:00 +29°C° 0 mm 7 mps 728 mmHg 43%
    23:00 +28°C° 0 mm 8 mps 728 mmHg 51%

    Tomorrow, 28 February, Tuesday

    Time Temperature Precipitation Wind Pressure Humidity
    00:00 +27°C° 0 mm 7 mps 728 mmHg 53%
    01:00 +26°C° 0 mm 7 mps 728 mmHg 55%
    02:00 +24°C° 0 mm 6 mps 728 mmHg 57%
    03:00 +24°C° 0 mm 6 mps 728 mmHg 56%
    04:00 +23°C° 0 mm 6 mps 728 mmHg 56%
    05:00 +23°C° 0 mm 5 mps 728 mmHg 55%
    06:00 +23°C° 0 mm 5 mps 729 mmHg 51%
    07:00 +24°C° 0 mm 6 mps 729 mmHg 48%
    08:00 +26°C° 0 mm 6 mps 730 mmHg 44%
    09:00 +29°C° 0 mm 5 mps 730 mmHg 36%
    10:00 +32°C° 0 mm 5 mps 730 mmHg 27%
    11:00 +35°C° 0 mm 4 mps 730 mmHg 19%
    12:00 +36°C° 0 mm 4 mps 729 mmHg 17%
    13:00 +38°C° 0 mm 4 mps 729 mmHg 15%
    14:00 +40°C° 0 mm 4 mps 728 mmHg 12%
    15:00 +40°C° 0 mm 4 mps 728 mmHg 13%
    16:00 +40°C° 0 mm 5 mps 728 mmHg 13%
    17:00 +40°C° 0 mm 6 mps 728 mmHg 14%
    18:00 +36°C° 0 mm 6 mps 728 mmHg 18%
    19:00 +34°C° 0 mm 6 mps 729 mmHg 22%
    20:00 +32°C° 0 mm 7 mps 729 mmHg 26%
    21:00 +30°C° 0 mm 7 mps 729 mmHg 30%
    22:00 +29°C° 0 mm 7 mps 730 mmHg 34%
    23:00 +28°C° 0 mm 8 mps 730 mmHg 37%

    Day after tomorrow, 1 March, Wednesday

    Time Temperature Precipitation Wind Pressure Humidity
    00:00 +27°C° 0 mm 7 mps 730 mmHg 39%
    01:00 +26°C° 0 mm 7 mps 729 mmHg 42%
    02:00 +24°C° 0 mm 6 mps 729 mmHg 44%
    03:00 +23°C° 0 mm 6 mps 729 mmHg 46%
    04:00 +23°C° 0 mm 6 mps 730 mmHg 48%
    05:00 +22°C° 0 mm 5 mps 730 mmHg 50%
    06:00 +23°C° 0 mm 5 mps 730 mmHg 47%
    07:00 +25°C° 0 mm 5 mps 731 mmHg 43%
    08:00 +26°C° 0 mm 5 mps 731 mmHg 40%
    09:00 +29°C° 0 mm 6 mps 731 mmHg 32%
    10:00 +33°C° 0 mm 6 mps 731 mmHg 25%
    11:00 +36°C° 0 mm 6 mps 731 mmHg 17%
    12:00 +38°C° 0 mm 6 mps 730 mmHg 15%
    13:00 +40°C° 0 mm 5 mps 730 mmHg 12%
    14:00 +42°C° 0 mm 5 mps 729 mmHg 10%
    15:00 +42°C° 0 mm 5 mps 729 mmHg 10%
    16:00 +42°C° 0 mm 4 mps 729 mmHg 9%
    17:00 +42°C° 0 mm 4 mps 729 mmHg 9%
    18:00 +38°C° 0 mm 4 mps 729 mmHg 11%
    19:00 +36°C° 0 mm 5 mps 729 mmHg 13%
    20:00 +34°C° 0 mm 5 mps 730 mmHg 16%
    21:00 +33°C° 0 mm 6 mps 730 mmHg 17%
    22:00 +32°C° 0 mm 7 mps 730 mmHg 19%
    23:00 +31°C° 0 mm 8 mps 730 mmHg 21%

    2 March, Thursday

    Time Temperature Precipitation Wind Pressure Humidity
    00:00 +30°C° 0 mm 7 mps 730 mmHg 24%
    01:00 +29°C° 0 mm 7 mps 730 mmHg 27%
    02:00 +28°C° 0 mm 7 mps 729 mmHg 30%
    03:00 +27°C° 0 mm 6 mps 730 mmHg 32%
    04:00 +27°C° 0 mm 6 mps 730 mmHg 34%
    05:00 +26°C° 0 mm 5 mps 730 mmHg 36%
    06:00 +28°C° 0 mm 6 mps 730 mmHg 34%
    07:00 +29°C° 0 mm 7 mps 731 mmHg 31%
    08:00 +32°C° 0 mm 8 mps 731 mmHg 29%
    09:00 +35°C° 0 mm 8 mps 731 mmHg 24%
    10:00 +39°C° 0 mm 8 mps 731 mmHg 20%
    11:00 +41°C° 0 mm 8 mps 731 mmHg 15%
    12:00 +43°C° 0 mm 7 mps 731 mmHg 13%
    13:00 +44°C° 0 mm 6 mps 730 mmHg 12%
    14:00 +45°C° 0 mm 5 mps 729 mmHg 10%
    15:00 +43°C° 0 mm 5 mps 729 mmHg 10%
    16:00 +43°C° 0 mm 5 mps 729 mmHg 11%
    17:00 +43°C° 0 mm 4 mps 729 mmHg 11%
    18:00 +41°C° 0 mm 4 mps 730 mmHg 12%
    19:00 +38°C° 0 mm 4 mps 730 mmHg 14%
    20:00 +36°C° 0 mm 4 mps 730 mmHg 15%
    21:00 +35°C° 0 mm 5 mps 730 mmHg 16%
    22:00 +34°C° 0 mm 5 mps 730 mmHg 18%
    23:00 +33°C° 0 mm 6 mps 730 mmHg 19%

    3 March, Friday

    Time Temperature Precipitation Wind Pressure Humidity
    00:00 +33°C° 0 mm 6 mps 730 mmHg 20%
    01:00 +32°C° 0 mm 7 mps 730 mmHg 21%
    02:00 +32°C° 0 mm 7 mps 730 mmHg 22%
    03:00 +30°C° 0 mm 7 mps 730 mmHg 23%
    04:00 +29°C° 0 mm 7 mps 730 mmHg 25%
    05:00 +29°C° 0 mm 6 mps 730 mmHg 26%
    06:00 +30°C° 0 mm 7 mps 730 mmHg 25%
    07:00 +32°C° 0 mm 8 mps 731 mmHg 25%
    08:00 +33°C° 0 mm 8 mps 731 mmHg 24%
    09:00 +37°C° 0 mm 8 mps 731 mmHg 20%
    10:00 +39°C° 0 mm 7 mps 731 mmHg 17%
    11:00 +41°C° 0 mm 7 mps 731 mmHg 14%
    12:00 +42°C° 0 mm 6 mps 731 mmHg 12%
    13:00 +43°C° 0 mm 5 mps 730 mmHg 11%
    14:00 +43°C° 0 mm 4 mps 730 mmHg 9%
    15:00 +43°C° 0 mm 3 mps 730 mmHg 10%
    16:00 +42°C° 0 mm 3 mps 729 mmHg 11%
    17:00 +41°C° 0 mm 2 mps 729 mmHg 12%
    18:00 +39°C° 0 mm 3 mps 730 mmHg 14%
    19:00 +37°C° 0 mm 3 mps 730 mmHg 15%
    20:00 +36°C° 0 mm 3 mps 730 mmHg 17%
    21:00 +35°C° 0 mm 3 mps 730 mmHg 18%
    22:00 +34°C° 0 mm 4 mps 730 mmHg 19%
    23:00 +33°C° 0 mm 4 mps 730 mmHg 20%

    4 March, Saturday

    Time Temperature Precipitation Wind Pressure Humidity
    00:00 +32°C° 0 mm 4 mps 730 mmHg 20%
    01:00 +30°C° 0 mm 4 mps 730 mmHg 20%
    02:00 +30°C° 0 mm 4 mps 729 mmHg 21%
    03:00 +29°C° 0 mm 3 mps 730 mmHg 22%
    04:00 +28°C° 0 mm 3 mps 730 mmHg 23%
    05:00 +28°C° 0 mm 3 mps 730 mmHg 24%
    06:00 +29°C° 0 mm 3 mps 730 mmHg 23%
    07:00 +30°C° 0 mm 4 mps 731 mmHg 22%
    08:00 +32°C° 0 mm 4 mps 731 mmHg 21%
    09:00 +35°C° 0 mm 5 mps 731 mmHg 18%
    10:00 +37°C° 0 mm 5 mps 731 mmHg 15%
    11:00 +41°C° 0 mm 5 mps 731 mmHg 13%
    12:00 +41°C° 0 mm 4 mps 730 mmHg 12%
    13:00 +42°C° 0 mm 3 mps 730 mmHg 11%
    14:00 +42°C° 0 mm 2 mps 729 mmHg 10%
    15:00 +41°C° 0 mm 2 mps 729 mmHg 11%
    16:00 +41°C° 0 mm 2 mps 729 mmHg 11%
    17:00 +40°C° 0 mm 2 mps 729 mmHg 12%
    18:00 +39°C° 0 mm 3 mps 729 mmHg 13%
    19:00 +37°C° 0 mm 3 mps 729 mmHg 15%
    20:00 +35°C° 0 mm 4 mps 730 mmHg 17%
    21:00 +34°C° 0 mm 4 mps 730 mmHg 19%
    22:00 +33°C° 0 mm 4 mps 730 mmHg 22%
    23:00 +32°C° 0 mm 5 mps 730 mmHg 24%
    Show more